Theta_e
314 313 314 314 314 313 314 313 313 313 312 314 314 315 314 315 314 314 315 316 315 315 315 314 313 312 312 315 324 328 332 335 334 333 334 334 334 333 332 332 332 332 331 329
313 313 313 312 311 312 314 313 313 312 312 314 315 315 314 314 315 315 315 315 316 316 316 313 311 311 311 311 312 320 326 330 335 333 332 333 332 333 332 332 332 331 331 331
311 312 311 312 310 311 312 312 313 313 312 312 312 313 313 314 314 314 314 314 315 314 314 313 311 311 311 310 310 310 313 322 328 334 331 332 332 332 332 332 332 331 331 331
312 308 311 312 311 311 311 311 312 312 313 312 312 311 315 314 313 311 311 312 312 312 312 312 313 313 313 312 311 309 309 312 318 327 332 331 331 332 331 331 330 329 329 329
311 310 311 312 311 311 311 311 312 313 313 314 312 311 312 311 312 312 312 313 313 313 313 312 312 311 311 313 315 316 308 311 316 322 329 332 329 331 330 329 329 329 328 328
311 308 310 312 309 311 309 311 312 312 312 312 311 312 311 313 312 311 312 314 314 313 312 312 311 311 312 313 315 319 311 308 314 320 324 328 329 329 329 329 329 328 329 327
312 310 310 309 310 310 311 311 313 312 313 312 309 312 312 313 309 311 312 316 313 312 313 312 312 312 312 312 313 316 320 318 313 314 321 325 327 327 326 326 327 330 330 327
311 311 311 310 311 311 312 312 315 322 316 313 308 312 312 312 312 309 308 314 313 313 312 312 311 311 311 311 312 313 317 320 319 320 320 322 324 325 324 325 326 328 329 328
310 311 309 309 309 311 311 312 311 312 309 316 313 312 312 311 310 312 311 313 313 312 311 311 310 310 310 310 310 311 312 316 318 318 318 319 320 321 322 323 323 325 325 326
310 312 310 308 309 308 310 310 311 311 323 320 312 313 312 313 310 311 313 314 313 311 310 309 308 308 308 308 308 309 309 309 311 313 314 315 317 319 319 318 318 318 319 320
309 312 311 310 311 311 309 310 310 310 316 326 317 312 311 312 313 312 314 314 311 311 310 308 307 306 306 306 306 306 307 307 307 307 307 307 307 308 308 308 308 308 308 308
310 314 314 311 308 309 310 311 311 312 313 311 313 313 310 309 313 314 314 312 311 310 309 307 307 306 305 304 304 303 303 303 302 302 302 302 302 302 302 302 302 303 302 303
309 317 319 312 311 311 310 310 311 311 314 320 318 312 311 310 312 314 314 311 310 309 308 307 305 305 304 303 302 301 300 300 300 300 300 299 299 299 299 299 300 300 300 300
310 317 315 313 311 312 312 312 310 311 319 313 314 312 313 312 311 314 313 311 310 309 307 306 305 304 303 302 301 300 299 299 299 299 299 298 298 298 298 298 298 298 298 298
311 316 312 312 312 314 315 312 311 310 311 312 312 312 311 312 312 313 313 312 310 309 307 306 305 304 302 300 299 299 298 297 297 297 296 296 296 296 296 296 296 296 297 297
311 315 313 313 313 312 315 314 312 311 311 311 310 311 311 311 313 313 313 311 310 309 307 306 304 303 300 299 298 298 297 296 296 296 295 295 295 295 295 295 295 295 295 295
314 314 316 322 314 314 314 312 313 312 311 311 311 311 311 310 312 313 313 312 311 309 307 305 303 301 299 297 297 297 296 295 295 294 294 294 294 294 293 293 293 294 294 294
310 311 317 319 317 317 314 311 310 311 311 311 311 311 311 311 310 312 312 312 310 308 306 303 302 299 296 295 295 294 294 293 293 292 292 292 292 292 293 293 292 292 292 292
311 313 318 317 318 316 314 309 311 311 311 310 310 310 310 309 309 310 308 310 309 306 303 301 299 297 295 293 293 292 292 292 291 291 291 291 291 291 292 292 292 292 292 292
308 310 315 317 319 320 313 308 309 310 314 312 311 310 310 308 311 311 306 306 304 302 300 297 295 292 291 290 291 291 290 290 288 288 289 288 288 288 288 288 288 288 288 288
310 311 315 317 319 318 308 304 308 316 317 302 304 308 308 308 308 304 301 299 298 296 294 292 291 289 288 289 290 289 288 286 285 286 285 285 285 285 285 285 286 286 286 286
310 313 312 314 316 316 303 305 313 308 301 301 303 304 305 301 299 298 296 295 293 292 291 289 288 286 285 286 288 286 284 282 282 283 283 283 283 283 283 284 285 284 285 284
311 313 314 312 313 305 304 304 302 301 302 301 301 300 300 298 297 296 295 293 291 289 287 287 286 283 283 283 283 282 280 281 281 282 282 282 283 283 283 283 283 283 283 284
305 302 307 310 309 304 302 300 298 298 299 297 298 299 298 297 296 294 293 289 287 285 284 284 284 283 280 279 279 279 279 279 280 281 281 281 282 282 281 281 281 281 281 283
304 302 306 306 302 300 300 299 299 295 294 295 294 295 297 295 294 292 291 289 286 283 282 283 282 281 278 278 278 279 279 279 280 280 279 279 279 279 279 279 278 279 279 280
298 303 306 308 304 304 302 300 297 295 294 293 293 292 293 293 293 290 288 286 283 281 280 279 278 278 277 277 277 277 277 277 277 277 276 275 275 274 275 275 276 277 278 279
Wind_Speed
10 10 15 18 17 5 14 14 11 9 3 6 13 15 14 12 9 9 10 10 10 11 11 7 7 10 13 16 20 22 22 22 22 24 24 24 24 25 25 25 26 24 24 25
7 15 13 5 7 6 10 15 9 5 3 4 6 13 13 14 15 13 14 13 13 12 9 10 7 7 11 15 17 19 22 23 24 23 24 23 21 22 25 25 27 26 26 26
12 7 10 8 6 9 6 12 10 1 5 2 6 11 16 14 15 13 10 10 9 7 9 6 6 7 7 10 12 16 20 22 24 22 22 21 18 19 20 25 26 28 26 27
8 3 10 12 13 7 7 3 7 9 7 6 3 5 4 9 11 10 11 12 11 6 4 3 3 3 2 4 6 9 13 19 22 23 21 22 21 20 20 20 24 27 26 26
5 8 12 13 11 12 3 6 6 5 3 4 6 5 5 2 9 11 10 6 5 4 3 4 4 2 2 2 2 3 7 11 17 20 22 21 20 18 18 17 19 21 23 23
4 1 3 3 6 2 14 9 8 4 2 5 10 8 6 7 3 4 8 7 6 6 5 5 4 3 4 5 3 2 4 8 13 16 19 19 18 18 14 15 17 19 20 20
4 4 2 4 9 6 6 14 4 5 5 6 3 3 12 2 3 4 8 7 7 7 6 5 4 4 5 5 5 4 4 5 6 11 13 16 16 15 17 16 15 13 16 17
11 7 10 8 2 7 14 15 5 6 6 3 3 7 5 1 4 5 4 4 7 7 6 5 4 4 5 5 6 5 6 6 6 5 6 9 13 12 11 11 12 10 6 10
12 8 2 1 1 5 7 6 3 5 2 0 7 7 7 8 6 6 8 8 7 6 5 5 4 5 6 6 7 7 7 8 8 7 7 6 8 10 10 10 9 8 7 7
3 4 1 3 2 1 5 9 3 3 4 5 5 7 9 6 11 10 10 10 8 6 6 5 5 5 5 6 7 9 10 10 10 10 9 9 8 8 7 7 5 5 4 6
6 3 2 3 9 13 5 5 5 3 3 4 3 5 4 4 10 13 12 11 9 8 7 6 7 6 6 7 8 10 11 11 12 11 11 11 10 10 9 9 7 5 2 1
2 4 4 8 3 3 5 11 12 5 6 6 2 6 2 4 1 11 11 10 8 8 7 7 9 9 8 8 9 10 12 12 11 11 12 12 11 10 10 10 8 6 5 5
9 4 4 2 2 2 7 10 15 13 3 6 5 8 2 4 4 7 12 11 10 9 9 8 9 9 9 9 8 11 11 12 12 12 12 12 13 12 11 10 9 8 8 8
5 3 10 14 4 9 8 12 11 11 4 15 11 20 5 7 10 10 10 11 12 10 9 8 8 9 9 8 9 10 10 10 11 11 12 13 12 11 11 10 10 10 10 9
6 6 6 13 4 2 4 12 14 17 23 12 23 21 16 9 12 15 13 11 12 13 12 11 9 10 10 9 9 10 9 10 10 11 12 12 11 10 10 10 10 10 10 10
4 2 2 2 3 2 1 7 18 22 24 20 25 20 9 2 10 11 13 13 14 14 14 12 10 12 11 9 9 9 9 9 10 11 11 10 10 10 10 9 9 10 10 11
7 6 3 2 4 5 4 22 13 16 20 19 21 29 7 7 10 11 14 16 16 13 13 12 12 14 12 10 9 9 8 8 10 11 10 10 10 10 9 10 11 13 13 14
6 6 2 4 3 6 7 3 19 20 18 18 21 21 8 7 13 13 13 16 14 14 14 13 15 15 13 11 10 10 10 10 9 10 10 10 10 11 12 14 15 16 17 18
2 4 3 5 7 9 15 3 7 10 21 20 22 23 15 2 3 7 3 8 12 13 15 17 17 16 13 11 10 12 11 10 9 10 9 11 12 13 14 15 17 18 20 21
3 2 5 3 6 9 3 4 3 5 17 9 14 19 10 9 8 11 10 8 13 19 21 20 19 17 14 12 11 11 10 8 8 9 10 10 11 13 15 16 19 20 22 24
5 3 13 12 6 7 4 7 3 9 3 2 2 3 6 7 4 8 13 13 19 20 22 22 19 18 15 12 10 10 8 7 5 7 9 10 12 14 16 18 19 21 22 24
10 9 4 2 7 14 6 4 9 1 1 1 1 1 4 8 10 12 14 14 17 20 19 18 21 17 12 10 8 7 5 4 6 9 11 12 14 16 17 19 21 21 23 23
6 3 5 8 5 2 7 4 2 2 2 2 2 3 8 12 12 13 13 13 15 17 16 17 18 16 11 7 6 5 1 5 8 10 12 15 16 17 18 19 20 21 20 17
6 3 2 2 4 2 2 2 3 2 3 2 2 7 11 14 13 13 12 11 13 14 14 16 16 12 8 4 3 2 2 6 10 13 15 17 19 20 19 21 19 17 16 16
2 9 5 5 2 2 8 8 3 3 3 5 3 5 9 13 12 12 10 10 14 14 13 14 13 10 8 4 1 2 5 8 10 12 14 15 16 19 21 20 19 20 21 18
5 5 6 5 4 1 1 3 8 8 8 9 8 5 6 10 11 12 9 12 14 14 13 11 9 8 5 3 1 3 5 7 10 11 11 13 15 16 16 17 21 18 18 19
Wind_Direction
192 198 200 194 203 247 197 202 201 189 126 217 232 249 246 240 214 242 243 230 215 214 215 213 222 237 231 227 226 225 221 217 211 211 209 213 216 222 229 234 242 241 237 236
172 215 199 147 134 152 180 193 186 130 135 207 231 259 255 248 242 232 237 236 225 212 204 213 231 237 238 234 227 228 226 222 213 213 216 217 220 226 231 239 243 247 242 240
196 192 146 166 162 177 193 194 168 193 155 232 283 266 246 237 244 237 236 252 258 251 245 244 223 235 244 240 230 229 229 225 222 214 218 218 219 225 231 228 233 242 246 243
231 139 179 184 189 169 185 95 138 134 176 230 265 263 177 225 225 212 227 219 226 218 206 206 192 203 224 242 249 241 234 229 225 217 210 211 214 220 227 232 240 245 247 249
162 155 180 178 193 193 155 114 114 135 195 292 185 263 237 146 250 222 194 170 174 168 177 151 119 98 36 17 274 253 236 222 215 213 212 212 217 226 232 232 239 242 244 245
98 344 200 157 72 228 137 122 95 114 191 246 231 223 251 208 227 121 146 166 160 157 144 127 106 86 62 49 45 79 173 202 208 208 212 219 218 224 229 230 234 236 237 240
129 148 116 181 101 136 193 162 144 194 201 246 56 209 246 183 157 220 162 159 148 154 151 127 107 93 64 53 50 64 97 121 187 202 207 213 222 221 231 235 239 232 222 236
182 193 181 168 202 181 194 191 178 190 195 191 88 230 245 24 65 166 160 150 148 149 146 122 106 96 80 72 70 68 80 90 103 143 180 197 208 216 216 219 232 232 219 244
193 173 63 82 51 158 170 202 71 109 43 100 202 247 273 177 178 197 178 179 167 150 141 127 113 95 84 74 71 82 86 87 97 120 141 159 186 205 217 224 229 228 232 233
211 118 21 100 179 160 214 146 151 232 178 225 224 258 244 206 217 191 183 186 166 147 150 135 119 104 90 84 81 81 83 81 85 93 105 109 120 131 136 136 142 155 199 223
163 110 107 167 211 181 159 180 214 242 201 208 243 232 32 288 188 190 187 174 165 161 156 144 125 112 101 93 89 87 85 86 83 85 87 88 88 90 98 99 100 98 101 91
168 101 154 196 47 357 282 212 186 190 202 238 35 262 93 52 162 177 170 158 150 150 147 140 135 126 110 100 94 91 87 83 80 87 89 84 83 82 88 84 75 75 57 34
174 171 115 127 213 210 215 205 217 221 49 197 199 252 139 129 162 173 169 165 160 160 155 148 138 130 124 108 107 95 89 86 88 89 88 81 76 73 70 73 74 65 55 39
181 134 205 209 198 145 208 209 205 218 201 230 223 248 160 186 185 180 180 179 172 173 168 161 147 142 125 122 109 97 89 87 91 94 92 88 81 75 68 60 57 52 41 28
186 203 220 244 56 62 191 189 190 207 225 219 239 245 240 206 198 198 186 181 182 185 182 174 160 150 141 131 115 105 96 94 95 92 84 77 74 70 63 51 42 40 31 19
156 151 116 61 83 90 7 230 202 212 229 236 250 259 248 345 173 189 186 187 200 196 184 177 160 150 141 135 124 113 102 97 103 97 86 80 73 61 50 37 24 20 12 2
158 143 127 168 112 98 284 226 208 221 230 228 238 246 238 193 201 200 196 203 203 192 179 170 164 152 142 133 127 114 106 107 100 88 77 64 54 45 29 16 6 359 352 342
144 129 121 123 122 216 250 65 217 217 234 224 247 256 239 241 212 208 205 203 193 180 172 167 155 142 134 129 121 121 114 104 88 70 52 37 24 15 4 358 352 343 338 333
85 126 162 207 211 299 287 188 184 192 244 235 241 250 250 128 75 234 265 186 183 163 151 150 143 137 127 119 125 119 106 91 68 45 28 14 1 354 348 343 337 331 325 320
127 38 214 150 223 232 346 90 99 127 265 204 220 243 239 143 222 243 157 130 127 134 130 123 121 119 116 112 117 108 92 76 49 23 12 355 342 334 331 328 326 322 319 315
154 183 202 213 225 277 122 143 158 179 256 337 18 339 140 192 248 103 121 114 119 120 121 121 119 113 112 116 115 104 77 49 9 357 341 332 329 327 325 322 322 322 319 317
176 166 177 191 210 250 137 117 185 80 109 3 338 314 133 110 119 124 122 120 120 121 118 119 117 112 111 104 101 104 85 356 333 332 332 329 331 331 327 324 324 322 321 316
208 212 175 201 212 98 194 50 66 3 333 165 197 173 149 136 136 135 131 123 120 117 112 120 124 115 101 107 105 110 20 325 330 334 335 337 335 332 330 328 324 322 319 312
214 174 213 168 196 191 245 224 232 245 265 306 199 160 154 146 143 135 129 126 122 121 120 131 124 127 128 114 104 93 336 337 339 339 339 336 334 329 329 324 323 316 307 300
138 148 171 264 171 287 236 232 243 173 130 118 100 149 159 142 139 136 133 132 133 132 133 138 142 146 150 150 109 342 336 336 337 336 334 332 328 324 321 317 312 306 300 293
186 171 192 220 139 188 94 218 173 164 170 161 145 111 107 144 134 134 132 137 140 141 147 146 148 153 162 173 234 299 322 329 330 331 329 321 319 316 314 311 311 306 295 294